#Datum;Uhrzeit;WR;Pac;DaySum;Status;WR;Pac;DaySum;Status;Pdc1;Udc;Temp;WR;Pac;DaySum;Status;Pdc1;Udc;Temp;WR;Pac;DaySum;Status;Pdc1;Udc;Temp;WR;Pac;DaySum;Status;Pdc1;Pdc2;Udc1;Udc2;Temp;WR;Pac;DaySum;Status;Pdc1;Pdc2;Udc1;Udc2;Temp;WR;Pac;DaySum;Status;Pdc1;Udc;Temp;WR;Pac;DaySum;Status;Pdc1;Udc;Temp;WR;Pac;DaySum;Status;Pdc1;Udc;Temp
13.03.20;23:55:00;1;283;7847;0;2;0;25386;0;0;0;0;3;0;15391;0;0;0;0;4;0;22849;0;0;0;0;5;0;46346;0;0;0;0;0;0;6;0;35172;0;0;0;0;0;0;7;0;31807;0;0;0;0;8;0;30646;0;0;0;0;9;0;16527;0;0;0;0
13.03.20;23:50:00;1;284;7823;0;2;0;25386;0;0;0;0;3;0;15391;0;0;0;0;4;0;22849;0;0;0;0;5;0;46346;0;0;0;0;0;0;6;0;35172;0;0;0;0;0;0;7;0;31807;0;0;0;0;8;0;30646;0;0;0;0;9;0;16527;0;0;0;0
13.03.20;23:45:00;1;328;7799;0;2;0;25386;0;0;0;0;3;0;15391;0;0;0;0;4;0;22849;0;0;0;0;5;0;46346;0;0;0;0;0;0;6;0;35172;0;0;0;0;0;0;7;0;31807;0;0;0;0;8;0;30646;0;0;0;0;9;0;16527;0;0;0;0
13.03.20;23:40:00;1;329;7772;0;2;0;25386;0;0;0;0;3;0;15391;0;0;0;0;4;0;22849;0;0;0;0;5;0;46346;0;0;0;0;0;0;6;0;35172;0;0;0;0;0;0;7;0;31807;0;0;0;0;8;0;30646;0;0;0;0;9;0;16527;0;0;0;0
13.03.20;23:35:00;1;403;7742;0;2;0;25386;0;0;0;0;3;0;15391;0;0;0;0;4;0;22849;0;0;0;0;5;0;46346;0;0;0;0;0;0;6;0;35172;0;0;0;0;0;0;7;0;31807;0;0;0;0;8;0;30646;0;0;0;0;9;0;16527;0;0;0;0
13.03.20;23:30:00;1;458;7708;0;2;0;25386;0;0;0;0;3;0;15391;0;0;0;0;4;0;22849;0;0;0;0;5;0;46346;0;0;0;0;0;0;6;0;35172;0;0;0;0;0;0;7;0;31807;0;0;0;0;8;0;30646;0;0;0;0;9;0;16527;0;0;0;0
13.03.20;23:25:00;1;317;7673;0;2;0;25386;0;0;0;0;3;0;15391;0;0;0;0;4;0;22849;0;0;0;0;5;0;46346;0;0;0;0;0;0;6;0;35172;0;0;0;0;0;0;7;0;31807;0;0;0;0;8;0;30646;0;0;0;0;9;0;16527;0;0;0;0
13.03.20;23:20:00;1;364;7645;0;2;0;25386;0;0;0;0;3;0;15391;0;0;0;0;4;0;22849;0;0;0;0;5;0;46346;0;0;0;0;0;0;6;0;35172;0;0;0;0;0;0;7;0;31807;0;0;0;0;8;0;30646;0;0;0;0;9;0;16527;0;0;0;0
13.03.20;23:15:00;1;457;7613;0;2;0;25386;0;0;0;0;3;0;15391;0;0;0;0;4;0;22849;0;0;0;0;5;0;46346;0;0;0;0;0;0;6;0;35172;0;0;0;0;0;0;7;0;31807;0;0;0;0;8;0;30646;0;0;0;0;9;0;16527;0;0;0;0
13.03.20;23:10:00;1;375;7577;0;2;0;25386;0;0;0;0;3;0;15391;0;0;0;0;4;0;22849;0;0;0;0;5;0;46346;0;0;0;0;0;0;6;0;35172;0;0;0;0;0;0;7;0;31807;0;0;0;0;8;0;30646;0;0;0;0;9;0;16527;0;0;0;0
13.03.20;23:05:00;1;357;7548;0;2;0;25386;0;0;0;0;3;0;15391;0;0;0;0;4;0;22849;0;0;0;0;5;0;46346;0;0;0;0;0;0;6;0;35172;0;0;0;0;0;0;7;0;31807;0;0;0;0;8;0;30646;0;0;0;0;9;0;16527;0;0;0;0
13.03.20;23:00:00;1;440;7518;0;2;0;25386;0;0;0;0;3;0;15391;0;0;0;0;4;0;22849;0;0;0;0;5;0;46346;0;0;0;0;0;0;6;0;35172;0;0;0;0;0;0;7;0;31807;0;0;0;0;8;0;30646;0;0;0;0;9;0;16527;0;0;0;0
13.03.20;22:55:00;1;378;7482;0;2;0;25386;0;0;0;0;3;0;15391;0;0;0;0;4;0;22849;0;0;0;0;5;0;46346;2;0;0;0;0;0;6;0;35172;2;0;0;0;0;0;7;0;31807;0;0;0;0;8;0;30646;0;0;0;0;9;0;16527;0;0;0;0
13.03.20;22:50:00;1;370;7450;0;2;0;25386;0;0;0;0;3;0;15391;0;0;0;0;4;0;22849;0;0;0;0;5;0;46346;2;0;0;0;0;0;6;0;35172;2;0;0;0;0;0;7;0;31807;0;0;0;0;8;0;30646;0;0;0;0;9;0;16527;0;0;0;0
13.03.20;22:45:00;1;523;7418;0;2;0;25386;0;0;0;0;3;0;15391;0;0;0;0;4;0;22849;0;0;0;0;5;0;46346;2;0;0;0;0;0;6;0;35172;2;0;0;0;0;0;7;0;31807;0;0;0;0;8;0;30646;0;0;0;0;9;0;16527;0;0;0;0
13.03.20;22:40:00;1;483;7380;0;2;0;25386;0;0;0;0;3;0;15391;0;0;0;0;4;0;22849;0;0;0;0;5;0;46346;2;0;0;0;0;0;6;0;35172;2;0;0;0;0;0;7;0;31807;0;0;0;0;8;0;30646;0;0;0;0;9;0;16527;0;0;0;0
13.03.20;22:35:00;1;215;7352;0;2;0;25386;0;0;0;0;3;0;15391;0;0;0;0;4;0;22849;0;0;0;0;5;0;46346;2;0;0;0;0;0;6;0;35172;2;0;0;0;0;0;7;0;31807;0;0;0;0;8;0;30646;0;0;0;0;9;0;16527;0;0;0;0
13.03.20;22:30:00;1;278;7334;0;2;0;25386;0;0;0;0;3;0;15391;0;0;0;0;4;0;22849;0;0;0;0;5;0;46346;2;0;0;0;0;0;6;0;35172;2;0;0;0;0;0;7;0;31807;0;0;0;0;8;0;30646;0;0;0;0;9;0;16527;0;0;0;0
13.03.20;22:25:00;1;214;7311;0;2;0;25386;0;0;0;0;3;0;15391;0;0;0;0;4;0;22849;0;0;0;0;5;0;46346;2;0;0;0;0;0;6;0;35172;2;0;0;0;0;0;7;0;31807;0;0;0;0;8;0;30646;0;0;0;0;9;0;16527;0;0;0;0
13.03.20;22:20:00;1;215;7293;0;2;0;25386;0;0;0;0;3;0;15391;0;0;0;0;4;0;22849;0;0;0;0;5;0;46346;2;0;0;0;0;0;6;0;35172;2;0;0;0;0;0;7;0;31807;0;0;0;0;8;0;30646;0;0;0;0;9;0;16527;0;0;0;0
13.03.20;22:15:00;1;200;7275;0;2;0;25386;0;0;0;0;3;0;15391;0;0;0;0;4;0;22849;0;0;0;0;5;0;46346;2;0;0;0;0;0;6;0;35172;2;0;0;0;0;0;7;0;31807;0;0;0;0;8;0;30646;0;0;0;0;9;0;16527;0;0;0;0
13.03.20;22:10:00;1;233;7258;0;2;0;25386;0;0;0;0;3;0;15391;0;0;0;0;4;0;22849;0;0;0;0;5;0;46346;2;0;0;0;0;0;6;0;35172;2;0;0;0;0;0;7;0;31807;0;0;0;0;8;0;30646;0;0;0;0;9;0;16527;0;0;0;0
13.03.20;22:05:00;1;236;7239;0;2;0;25386;0;0;0;0;3;0;15391;0;0;0;0;4;0;22849;0;0;0;0;5;0;46346;2;0;0;0;0;0;6;0;35172;2;0;0;0;0;0;7;0;31807;0;0;0;0;8;0;30646;0;0;0;0;9;0;16527;0;0;0;0
13.03.20;22:00:00;1;272;7219;0;2;0;25386;0;0;0;0;3;0;15391;0;0;0;0;4;0;22849;0;0;0;0;5;0;46346;2;0;0;0;0;0;6;0;35172;2;0;0;0;0;0;7;0;31807;0;0;0;0;8;0;30646;0;0;0;0;9;0;16527;0;0;0;0
13.03.20;21:55:00;1;224;7195;0;2;0;25386;0;0;0;0;3;0;15391;0;0;0;0;4;0;22849;0;0;0;0;5;0;46346;2;0;0;0;0;0;6;0;35172;2;0;0;0;0;0;7;0;31807;0;0;0;0;8;0;30646;0;0;0;0;9;0;16527;0;0;0;0
13.03.20;21:50:00;1;198;7178;0;2;0;25386;0;0;0;0;3;0;15391;0;0;0;0;4;0;22849;0;0;0;0;5;0;46346;2;0;0;0;0;0;6;0;35172;2;0;0;0;0;0;7;0;31807;0;0;0;0;8;0;30646;0;0;0;0;9;0;16527;0;0;0;0
13.03.20;21:45:00;1;197;7161;0;2;0;25386;0;0;0;0;3;0;15391;0;0;0;0;4;0;22849;0;0;0;0;5;0;46346;2;0;0;0;0;0;6;0;35172;2;0;0;0;0;0;7;0;31807;0;0;0;0;8;0;30646;0;0;0;0;9;0;16527;0;0;0;0
13.03.20;21:40:00;1;197;7145;0;2;0;25386;0;0;0;0;3;0;15391;0;0;0;0;4;0;22849;0;0;0;0;5;0;46346;2;0;0;0;0;0;6;0;35172;2;0;0;0;0;0;7;0;31807;0;0;0;0;8;0;30646;0;0;0;0;9;0;16527;0;0;0;0
13.03.20;21:35:00;1;197;7128;0;2;0;25386;0;0;0;0;3;0;15391;0;0;0;0;4;0;22849;0;0;0;0;5;0;46346;2;0;0;0;0;0;6;0;35172;2;0;0;0;0;0;7;0;31807;0;0;0;0;8;0;30646;0;0;0;0;9;0;16527;0;0;0;0
13.03.20;21:30:00;1;196;7112;0;2;0;25386;0;0;0;0;3;0;15391;0;0;0;0;4;0;22849;0;0;0;0;5;0;46346;2;0;0;0;0;0;6;0;35172;2;0;0;0;0;0;7;0;31807;0;0;0;0;8;0;30646;0;0;0;0;9;0;16527;0;0;0;0
13.03.20;21:25:00;1;263;7092;0;2;0;25386;0;0;0;0;3;0;15391;0;0;0;0;4;0;22849;0;0;0;0;5;0;46346;2;0;0;0;0;0;6;0;35172;2;0;0;0;0;0;7;0;31807;0;0;0;0;8;0;30646;0;0;0;0;9;0;16527;0;0;0;0
13.03.20;21:20:00;1;238;7072;0;2;0;25386;0;0;0;0;3;0;15391;0;0;0;0;4;0;22849;0;0;0;0;5;0;46346;2;0;0;0;0;0;6;0;35172;2;0;0;0;0;0;7;0;31807;0;0;0;0;8;0;30646;0;0;0;0;9;0;16527;0;0;0;0
13.03.20;21:15:00;1;303;7052;0;2;0;25386;0;0;0;0;3;0;15391;0;0;0;0;4;0;22849;0;0;0;0;5;0;46346;2;0;0;0;0;0;6;0;35172;2;0;0;0;0;0;7;0;31807;0;0;0;0;8;0;30646;0;0;0;0;9;0;16527;0;0;0;0
13.03.20;21:10:00;1;310;7026;0;2;0;25386;0;0;0;0;3;0;15391;0;0;0;0;4;0;22849;0;0;0;0;5;0;46346;2;0;0;0;0;0;6;0;35172;2;0;0;0;0;0;7;0;31807;0;0;0;0;8;0;30646;0;0;0;0;9;0;16527;0;0;0;0
13.03.20;21:05:00;1;386;6999;0;2;0;25386;0;0;0;0;3;0;15391;0;0;0;0;4;0;22849;0;0;0;0;5;0;46346;2;0;0;0;0;0;6;0;35172;2;0;0;0;0;0;7;0;31807;0;0;0;0;8;0;30646;0;0;0;0;9;0;16527;0;0;0;0
13.03.20;21:00:00;1;445;6966;0;2;0;25386;0;0;0;0;3;0;15391;0;0;0;0;4;0;22849;0;0;0;0;5;0;46346;2;0;0;0;0;0;6;0;35172;2;0;0;0;0;0;7;0;31807;0;0;0;0;8;0;30646;0;0;0;0;9;0;16527;0;0;0;0
13.03.20;20:55:00;1;690;6922;0;2;0;25386;0;0;0;0;3;0;15391;0;0;0;0;4;0;22849;0;0;0;0;5;0;46346;2;0;0;0;0;0;6;0;35172;2;0;0;0;0;0;7;0;31807;0;0;0;0;8;0;30646;0;0;0;0;9;0;16527;0;0;0;0
13.03.20;20:50:00;1;562;6872;0;2;0;25386;0;0;0;0;3;0;15391;0;0;0;0;4;0;22849;0;0;0;0;5;0;46346;2;0;0;0;0;0;6;0;35172;2;0;0;0;0;0;7;0;31807;0;0;0;0;8;0;30646;0;0;0;0;9;0;16527;0;0;0;0
13.03.20;20:45:00;1;563;6825;0;2;0;25386;0;0;0;0;3;0;15391;0;0;0;0;4;0;22849;0;0;0;0;5;0;46346;2;0;0;0;0;0;6;0;35172;2;0;0;0;0;0;7;0;31807;0;0;0;0;8;0;30646;0;0;0;0;9;0;16527;0;0;0;0
13.03.20;20:40:00;1;552;6779;0;2;0;25386;0;0;0;0;3;0;15391;0;0;0;0;4;0;22849;0;0;0;0;5;0;46346;2;0;0;0;0;0;6;0;35172;2;0;0;0;0;0;7;0;31807;0;0;0;0;8;0;30646;0;0;0;0;9;0;16527;0;0;0;0
13.03.20;20:35:00;1;539;6733;0;2;0;25386;0;0;0;0;3;0;15391;0;0;0;0;4;0;22849;0;0;0;0;5;0;46346;2;0;0;0;0;0;6;0;35172;2;0;0;0;0;0;7;0;31807;0;0;0;0;8;0;30646;0;0;0;0;9;0;16527;0;0;0;0
13.03.20;20:30:00;1;538;6688;0;2;0;25386;0;0;0;0;3;0;15391;0;0;0;0;4;0;22849;0;0;0;0;5;0;46346;2;0;0;0;0;0;6;0;35172;2;0;0;0;0;0;7;0;31807;0;0;0;0;8;0;30646;0;0;0;0;9;0;16527;0;0;0;0
13.03.20;20:25:00;1;574;6642;0;2;0;25386;0;0;0;0;3;0;15391;0;0;0;0;4;0;22849;0;0;0;0;5;0;46346;2;0;0;0;0;0;6;0;35172;2;0;0;0;0;0;7;0;31807;0;0;0;0;8;0;30646;0;0;0;0;9;0;16527;0;0;0;0
13.03.20;20:20:00;1;503;6594;0;2;0;25386;0;0;0;0;3;0;15391;0;0;0;0;4;0;22849;0;0;0;0;5;0;46346;2;0;0;0;0;0;6;0;35172;2;0;0;0;0;0;7;0;31807;0;0;0;0;8;0;30646;0;0;0;0;9;0;16527;0;0;0;0
13.03.20;20:15:00;1;503;6552;0;2;0;25386;0;0;0;0;3;0;15391;0;0;0;0;4;0;22849;0;0;0;0;5;0;46346;2;0;0;0;0;0;6;0;35172;2;0;0;0;0;0;7;0;31807;0;0;0;0;8;0;30646;0;0;0;0;9;0;16527;0;0;0;0
13.03.20;20:10:00;1;506;6510;0;2;0;25386;0;0;0;0;3;0;15391;0;0;0;0;4;0;22849;0;0;0;0;5;0;46346;2;0;0;0;0;0;6;0;35172;2;0;0;0;0;0;7;0;31807;0;0;0;0;8;0;30646;0;0;0;0;9;0;16527;0;0;0;0
13.03.20;20:05:00;1;528;6466;0;2;0;25386;0;0;0;0;3;0;15391;0;0;0;0;4;0;22849;0;0;0;0;5;0;46346;2;0;0;0;0;0;6;0;35172;2;0;0;0;0;0;7;0;31807;0;0;0;0;8;0;30646;0;0;0;0;9;0;16527;0;0;0;0
13.03.20;20:00:00;1;527;6422;0;2;0;25386;0;0;0;0;3;0;15391;0;0;0;0;4;0;22849;0;0;0;0;5;0;46346;2;0;0;0;0;0;6;0;35172;2;0;0;0;0;0;7;0;31807;0;0;0;0;8;0;30646;0;0;0;0;9;0;16527;0;0;0;0
13.03.20;19:55:00;1;587;6378;0;2;0;25386;0;0;0;0;3;0;15391;0;0;0;0;4;0;22849;0;0;0;0;5;0;46346;2;0;0;0;0;0;6;0;35172;2;0;0;0;0;0;7;0;31807;0;0;0;0;8;0;30646;0;0;0;0;9;0;16527;0;0;0;0
13.03.20;19:50:00;1;537;6329;0;2;0;25386;0;0;0;0;3;0;15391;0;0;0;0;4;0;22849;0;0;0;0;5;0;46346;2;0;0;0;0;0;6;0;35172;2;0;0;0;0;0;7;0;31807;0;0;0;0;8;0;30646;0;0;0;0;9;0;16527;0;0;0;0
13.03.20;19:45:00;1;550;6283;0;2;0;25386;0;0;0;0;3;0;15391;0;0;0;0;4;0;22849;0;0;0;0;5;0;46346;2;0;0;0;0;0;6;0;35172;2;0;0;0;0;0;7;0;31807;0;0;0;0;8;0;30646;0;0;0;0;9;0;16527;0;0;0;0
13.03.20;19:40:00;1;551;6237;0;2;0;25386;0;0;0;0;3;0;15391;0;0;0;0;4;0;22849;0;0;0;0;5;0;46346;2;0;0;0;0;0;6;0;35172;2;0;0;0;0;0;7;0;31807;0;0;0;0;8;0;30646;0;0;0;0;9;0;16527;0;0;0;0
13.03.20;19:35:00;1;593;6191;0;2;0;25386;0;0;0;0;3;0;15391;0;0;0;0;4;0;22849;0;0;0;0;5;0;46346;2;0;0;0;0;0;6;0;35172;2;0;0;0;0;0;7;0;31807;0;0;0;0;8;0;30646;0;0;0;0;9;0;16527;0;0;0;0
13.03.20;19:30:00;1;508;6147;0;2;0;25386;0;0;0;0;3;0;15391;0;0;0;0;4;0;22849;0;0;0;0;5;0;46346;2;0;0;0;0;0;6;0;35172;2;0;0;0;0;0;7;0;31807;0;0;0;0;8;0;30646;0;0;0;0;9;0;16527;0;0;0;0
13.03.20;19:25:00;1;1038;6104;0;2;0;25386;0;0;0;0;3;0;15391;0;0;0;0;4;0;22849;0;0;0;0;5;0;46346;2;0;0;0;0;0;6;0;35172;2;0;0;0;0;0;7;0;31807;0;0;0;0;8;0;30646;0;0;0;0;9;0;16527;0;0;0;0
13.03.20;19:20:00;1;537;6049;0;2;0;25386;0;0;0;0;3;0;15391;0;0;0;0;4;0;22849;0;0;0;0;5;0;46346;2;0;0;0;0;0;6;0;35172;2;0;0;0;0;0;7;0;31807;0;0;0;0;8;0;30646;0;0;0;0;9;0;16527;0;0;0;0
13.03.20;19:15:00;1;588;6004;0;2;0;25386;0;0;0;0;3;0;15391;0;0;0;0;4;0;22849;0;0;0;0;5;0;46346;2;0;0;0;0;0;6;0;35172;2;0;0;0;0;0;7;0;31807;0;0;0;0;8;0;30646;0;0;0;0;9;0;16527;0;0;0;0
13.03.20;19:10:00;1;508;5957;0;2;0;25386;0;0;0;0;3;0;15391;0;0;0;0;4;0;22849;0;0;0;0;5;0;46346;2;0;0;0;0;0;6;0;35172;2;0;0;0;0;0;7;0;31807;0;0;0;0;8;0;30646;0;0;0;0;9;0;16527;0;0;0;0
13.03.20;19:05:00;1;597;5911;0;2;0;25386;0;0;0;0;3;0;15391;0;0;0;0;4;0;22849;0;0;0;0;5;0;46346;2;0;0;0;0;0;6;0;35172;2;0;0;0;0;0;7;0;31807;0;0;0;0;8;0;30646;0;0;0;0;9;0;16527;0;0;0;0
13.03.20;19:00:00;1;641;5860;0;2;0;25386;0;0;0;0;3;0;15391;0;0;0;0;4;0;22849;0;0;0;0;5;0;46346;2;0;0;0;0;0;6;0;35172;2;0;0;0;0;0;7;0;31807;0;0;0;0;8;0;30646;0;0;0;0;9;0;16527;0;0;0;0
13.03.20;18:55:00;1;692;5798;0;2;0;25386;0;0;0;0;3;0;15391;0;0;0;0;4;0;22849;0;0;0;0;5;0;46346;2;0;0;0;0;0;6;0;35172;2;0;0;0;0;0;7;0;31807;0;0;0;0;8;0;30646;0;0;0;0;9;0;16527;0;0;0;0
13.03.20;18:50:00;1;717;5739;0;2;0;25386;0;0;0;0;3;0;15391;0;0;0;0;4;0;22849;0;0;0;0;5;0;46346;2;0;0;0;0;0;6;0;35172;2;0;0;0;0;0;7;0;31807;0;0;0;0;8;0;30646;0;0;0;0;9;0;16527;0;0;0;0
13.03.20;18:45:00;1;635;5681;0;2;0;25386;0;0;0;0;3;0;15391;0;0;0;0;4;0;22849;0;0;0;0;5;0;46346;2;0;0;0;0;0;6;0;35172;2;0;0;0;0;0;7;0;31807;0;0;0;0;8;0;30646;0;0;0;0;9;0;16527;0;0;0;0
13.03.20;18:40:00;1;623;5629;0;2;0;25386;0;0;0;0;3;0;15391;0;0;0;0;4;0;22849;0;0;0;0;5;0;46346;2;0;0;0;0;0;6;0;35172;2;0;0;0;0;0;7;0;31807;0;0;0;0;8;0;30646;0;0;0;0;9;0;16527;0;0;0;0
13.03.20;18:35:00;1;567;5576;0;2;0;25386;0;0;152;12;3;0;15391;0;0;245;19;4;0;22849;0;0;0;0;5;0;46346;2;0;0;0;0;0;6;0;35172;2;0;0;0;0;0;7;0;31807;0;0;0;0;8;0;30646;0;0;0;0;9;0;16527;0;0;0;0
13.03.20;18:30:00;1;553;5530;0;2;0;25386;6;0;294;22;3;0;15391;6;0;322;23;4;0;22849;0;0;30;11;5;0;46346;2;0;0;0;0;0;6;0;35172;2;0;0;0;0;0;7;0;31807;0;0;0;0;8;0;30646;0;0;0;0;9;0;16527;0;0;0;0
13.03.20;18:25:00;1;544;5484;0;2;0;25386;6;0;354;22;3;0;15391;3;4;406;24;4;0;22849;1;0;123;23;5;0;46346;2;0;0;217;222;24;6;0;35172;1;3;5;231;200;23;7;0;31807;0;0;164;13;8;0;30646;0;0;161;13;9;0;16527;0;0;168;10
13.03.20;18:20:00;1;581;5439;0;2;0;25386;6;0;375;23;3;0;15391;6;0;471;24;4;0;22849;1;0;160;23;5;0;46346;23;0;0;384;383;30;6;0;35172;23;3;2;180;499;28;7;0;31807;6;0;318;23;8;0;30646;6;0;315;23;9;0;16527;0;0;163;8
13.03.20;18:15:00;1;513;5395;0;2;0;25386;6;0;399;24;3;1;15391;6;5;480;24;4;0;22849;1;0;212;24;5;5;46346;1;0;0;411;641;31;6;0;35172;23;4;6;264;560;28;7;0;31807;6;2;400;24;8;0;30646;6;0;333;18;9;0;16527;0;2;71;3
13.03.20;18:10:00;1;533;5351;0;2;0;25386;6;0;408;25;3;0;15391;6;0;519;25;4;0;22849;3;0;188;25;5;0;46345;1;0;0;424;672;32;6;0;35172;23;4;1;337;571;29;7;0;31807;6;0;443;25;8;0;30646;6;0;388;24;9;0;16527;6;0;473;18
13.03.20;18:05:00;1;528;5307;0;2;43;25386;6;80;373;26;3;3;15391;6;9;520;25;4;2;22849;3;2;199;26;5;94;46340;4;13;19;370;587;32;6;9;35172;8;5;9;536;516;30;7;6;31807;6;17;439;25;8;4;30646;3;13;342;19;9;0;16527;6;0;318;11
13.03.20;18:00:00;1;519;5263;0;2;52;25383;4;88;367;27;3;0;15390;6;0;551;26;4;13;22849;3;14;200;26;5;103;46332;4;19;30;370;587;32;6;51;35171;4;6;6;440;224;31;7;0;31807;6;0;498;26;8;0;30645;0;0;0;0;9;0;16527;6;0;543;19
13.03.20;17:55:00;1;607;5229;0;2;171;25378;4;209;358;28;3;90;15390;4;128;430;27;4;97;22848;3;101;212;27;5;158;46321;4;46;52;370;587;33;6;75;35166;4;51;41;440;224;31;7;102;31807;4;153;446;26;8;32;30645;0;49;212;12;9;3;16527;6;7;351;13
13.03.20;17:50:00;1;370;5196;0;2;360;25364;4;402;354;29;3;194;15383;4;235;410;28;4;258;22840;5;269;233;27;5;179;46308;4;63;65;370;587;33;6;91;35160;4;42;32;440;224;31;7;108;31799;4;131;234;13;8;81;30641;4;127;440;26;9;0;16526;0;0;0;0
13.03.20;17:45:00;1;523;5167;0;2;581;25332;4;633;355;30;3;337;15366;4;384;432;28;4;444;22817;5;462;241;28;5;231;46292;4;86;88;370;587;33;6;115;35152;4;67;46;439;224;31;7;262;31781;4;286;235;13;8;150;30634;4;180;362;26;9;8;16526;3;11;366;14
13.03.20;17:40:00;1;196;5131;0;2;648;25284;4;706;358;31;3;387;15338;4;434;422;29;4;514;22780;5;536;235;29;5;259;46272;4;100;91;370;587;33;6;131;35142;4;103;67;440;224;31;7;632;31738;4;691;476;28;8;195;30622;4;236;408;27;9;0;16525;6;0;590;21
13.03.20;17:35:00;1;196;5115;0;2;914;25230;4;980;361;33;3;526;15305;4;580;436;30;4;724;22737;5;754;244;29;5;339;46248;4;139;135;370;587;33;6;202;35130;4;110;105;440;333;31;7;760;31686;4;812;394;23;8;412;30606;4;458;413;27;9;46;16525;4;63;293;14
13.03.20;17:30:00;1;196;5099;0;2;1014;25154;4;1085;354;34;3;583;15262;4;641;438;30;4;819;22677;5;853;242;30;5;387;46220;4;164;167;370;587;34;6;286;35112;4;64;87;440;525;32;7;1039;31609;4;1108;484;28;8;528;30571;4;580;420;28;9;75;16519;4;106;444;22
13.03.20;17:25:00;1;252;5082;0;2;1279;25068;4;1359;366;35;3;754;15213;4;813;434;31;4;1036;22608;5;1079;246;31;5;567;46183;4;249;251;392;597;34;6;479;35084;4;229;284;588;572;32;7;1335;31521;4;1415;492;29;8;775;30526;4;827;473;28;9;83;16510;0;111;403;18
13.03.20;17:20:00;1;303;5060;0;2;1367;24963;4;1452;366;36;3;785;15150;4;847;446;31;4;1063;22522;5;1107;246;31;5;595;46135;4;247;292;289;632;34;6;556;35043;4;292;331;609;579;32;7;1436;31411;4;1526;500;29;8;800;30463;4;850;440;29;9;114;16504;4;146;504;24
13.03.20;17:15:00;1;233;5037;0;2;1584;24849;4;1682;379;37;3;906;15085;4;973;439;32;4;1304;22434;5;1358;246;32;5;904;46076;4;440;364;421;661;35;6;691;34994;4;291;331;603;582;32;7;677;31251;0;721;195;12;8;1143;30396;4;1205;358;29;9;90;16495;4;119;362;19
13.03.20;17:10:00;1;198;5017;0;2;1659;24717;4;1757;382;38;3;946;15009;4;1014;442;32;4;1366;22325;5;1423;244;32;5;1011;46001;4;490;410;418;660;35;6;767;34935;4;327;347;602;582;32;7;1801;31156;4;1905;484;30;8;1320;30302;4;1390;376;30;9;111;16485;4;138;369;25
13.03.20;17:05:00;1;258;4998;0;2;1734;24578;4;1838;382;39;3;973;14931;4;1045;441;33;4;1460;22212;5;1521;247;33;5;1249;45914;4;600;539;395;684;35;6;986;34865;4;485;513;605;583;33;7;2056;31007;4;2172;487;31;8;1450;30191;4;1522;349;25;9;317;16476;4;352;356;26
13.03.20;17:00:00;1;260;4976;0;2;2082;24434;4;2195;390;41;3;1147;14849;4;1226;438;33;4;1722;22091;5;1793;242;34;5;1571;45807;4;804;663;418;681;36;6;1200;34781;4;630;677;610;588;33;7;2258;30834;4;2390;492;31;8;2014;30045;4;2128;440;31;9;532;16450;4;581;361;27
13.03.20;16:55:00;1;261;4954;0;2;2100;24260;4;2217;395;42;3;1148;14754;4;1221;443;34;4;1747;21947;5;1820;244;34;5;1718;45666;4;883;723;427;694;36;6;1323;34674;4;642;666;612;578;33;7;2439;30649;4;2568;489;32;8;1526;29880;4;1603;311;21;9;850;16407;4;899;358;28
13.03.20;16:50:00;1;324;4932;0;2;2401;24086;4;2541;403;43;3;1310;14658;4;1387;442;34;4;2008;21801;5;2092;245;35;5;2037;45522;4;1065;867;440;703;36;6;1543;34565;4;721;742;613;584;33;7;2611;30443;4;2747;492;32;8;2493;29687;4;2612;476;32;9;921;16335;4;980;372;29
13.03.20;16:45:00;1;264;4906;0;2;2577;23885;4;2719;409;43;3;1398;14548;4;1482;456;35;4;2147;21633;5;2236;248;35;5;2260;45344;4;1189;961;427;705;37;6;1642;34430;4;844;875;617;590;33;7;2691;30224;4;2829;491;33;8;1778;29406;0;1863;326;22;9;1110;16256;4;1176;395;30
13.03.20;16:40:00;1;264;4884;0;2;1038;23671;4;1116;408;43;3;505;14431;4;567;509;34;4;1138;21454;5;1185;232;35;5;1554;45159;4;785;642;417;661;37;6;1152;34289;4;589;620;569;543;34;7;1461;29999;4;1546;242;16;8;2696;29258;4;2829;484;33;9;1077;16164;4;1150;453;30
13.03.20;16:35:00;1;257;4859;0;2;2210;23609;4;2345;403;48;3;1212;14397;4;1286;431;36;4;1836;21392;5;1913;235;37;5;2516;45085;4;1328;1092;417;688;38;6;1945;34232;4;977;994;611;574;34;7;2485;29757;4;2614;479;34;8;2515;29045;4;2645;474;34;9;1120;16078;4;1194;454;32
13.03.20;16:30:00;1;242;4837;0;2;3185;23429;4;3365;403;49;3;1713;14299;4;1803;438;37;4;2578;21243;5;2685;242;38;5;3419;44863;4;1838;1490;423;700;38;6;2568;34068;4;1351;1339;612;585;34;7;3504;29556;4;3685;476;34;8;3454;28844;4;3627;485;34;9;806;15988;4;856;232;16
13.03.20;16:25:00;1;585;4812;0;2;3368;23163;4;3560;397;50;3;1802;14156;4;1897;433;38;4;2767;21028;5;2882;238;38;5;3815;44586;4;2048;1672;426;698;39;6;2903;33855;4;1481;1471;610;585;34;7;3012;29263;4;3167;380;28;8;3692;28554;4;3877;469;35;9;1907;15854;4;2016;499;34
13.03.20;16:20:00;1;566;4762;0;2;3534;22883;4;3736;406;51;3;1899;14007;4;1998;438;38;4;2858;20798;5;2978;240;38;5;4110;44266;4;2216;1808;428;692;39;6;3135;33611;4;1591;1573;611;589;35;7;1958;28951;4;2061;238;17;8;3870;28247;4;4059;477;35;9;2044;15695;4;2163;512;35
13.03.20;16:15:00;1;522;4701;0;2;3557;22588;4;3769;409;52;3;1872;13848;4;1972;440;39;4;2820;20560;5;2937;237;38;5;4111;43923;4;2209;1803;427;692;39;6;3152;33349;4;1604;1586;611;584;35;7;3298;28563;0;3459;394;29;8;2593;27924;4;2718;315;23;9;2107;15524;4;2238;524;35
13.03.20;16:10:00;1;442;4657;0;2;3577;22291;4;3789;402;52;3;1843;13692;4;1941;426;39;4;2766;20324;5;2881;241;39;5;4228;43579;4;2278;1860;433;696;39;6;3213;33087;4;1646;1629;614;590;35;7;4008;28296;4;4214;477;35;8;3926;27596;4;4127;477;35;9;2152;15348;4;2279;524;36
13.03.20;16:05:00;1;362;4626;0;2;3803;21991;4;4030;405;53;3;1983;13538;4;2087;439;39;4;2936;20093;5;3059;239;39;5;4684;43214;4;2548;2057;427;688;40;6;3573;32808;4;1827;1808;610;587;35;7;4241;27963;4;4465;479;36;8;4152;27270;4;4366;475;36;9;1382;15075;0;1467;318;21
13.03.20;16:00:00;1;361;4596;0;2;3929;21676;4;4160;410;53;3;2080;13374;4;2190;438;40;4;3046;19850;5;3173;236;39;5;4948;42822;4;2702;2173;429;695;40;6;3777;32510;4;1921;1897;615;588;35;7;4457;27609;4;4680;476;36;8;2194;26858;0;2304;236;18;9;2405;14982;4;2548;528;36
13.03.20;15:55:00;1;370;4565;0;2;3761;21348;4;3991;408;53;3;1985;13200;4;2090;431;40;4;2902;19597;5;3023;237;40;5;4904;42421;4;2647;2143;427;691;40;6;3744;32203;4;1922;1894;608;587;35;7;2454;27237;4;2576;282;21;8;3285;26558;4;3449;375;28;9;2062;14780;4;2187;520;36
13.03.20;15:50:00;1;420;4534;0;2;3881;21035;4;4106;394;54;3;2039;13035;4;2140;410;40;4;3013;19357;5;3139;241;40;5;5064;42022;4;2740;2234;425;686;40;6;3858;31899;4;1963;1924;607;588;35;7;4428;26897;4;4674;476;36;8;4355;26231;4;4592;473;36;9;2406;14613;4;2547;520;37
13.03.20;15:45:00;1;470;4492;0;2;3953;20710;4;4184;416;54;3;2293;12864;4;2411;448;41;4;3355;19104;5;3494;237;41;5;5526;41577;4;3000;2445;423;693;41;6;3919;31560;4;2004;1979;592;582;36;7;3414;26526;4;3589;451;37;8;3678;25867;4;3866;464;37;9;1840;14413;4;1949;423;29
13.03.20;15:40:00;1;459;4453;0;2;4427;20378;4;4689;403;55;3;2303;12678;4;2417;436;41;4;3293;18824;5;3430;239;41;5;5799;41132;4;3144;2592;422;680;41;6;4544;31219;4;2357;2312;612;589;36;7;3568;26222;4;3742;446;37;8;1360;25527;0;1435;224;18;9;1655;14215;4;1764;511;37
13.03.20;15:35:00;1;431;4419;0;2;4415;20006;4;4669;400;54;3;2496;12476;4;2623;446;41;4;3643;18534;5;3794;240;41;5;6277;40617;4;3415;2784;424;687;41;6;4805;30823;4;2464;2414;608;585;36;7;4084;25871;4;4295;376;29;8;4984;25343;4;5233;459;37;9;1659;14126;4;1758;315;22
13.03.20;15:30:00;1;362;4384;0;2;4437;19639;4;4693;399;54;3;2504;12268;4;2631;446;41;4;3647;18230;5;3799;244;41;5;6308;40094;4;3439;2792;427;712;41;6;4852;30425;4;2464;2418;608;585;36;7;5095;25445;4;5330;460;37;8;5011;24927;4;5268;465;37;9;2771;13894;4;2924;512;38
13.03.20;15:25:00;1;248;4331;0;2;4145;19269;4;4395;394;54;3;2281;12059;4;2401;450;41;4;3341;17926;5;3480;240;41;5;5608;39570;4;3040;2480;431;686;41;6;4515;30024;4;2359;2301;605;592;36;7;4351;25023;4;4580;468;37;8;4283;24520;4;4508;464;37;9;1866;13670;4;1982;417;30
13.03.20;15:20:00;1;248;4308;0;2;4525;18919;4;4802;398;55;3;2614;11865;4;2746;449;42;4;3890;17642;5;4052;238;42;5;6710;39134;4;3677;2991;424;689;41;6;5151;29688;4;2650;2567;608;588;36;7;5384;24647;4;5657;465;37;8;5297;24152;4;5570;465;38;9;2920;13460;4;3090;516;39
13.03.20;15:15:00;1;287;4285;0;2;4664;18542;4;4932;398;55;3;2682;11647;4;2819;461;42;4;4044;17317;5;4213;240;42;5;7120;38588;4;3898;3175;424;690;41;6;5360;29268;4;2758;2674;609;586;36;7;4632;24197;4;4873;392;30;8;5470;23702;4;5747;468;37;9;3026;13214;4;3197;516;38
13.03.20;15:10:00;1;249;4262;0;2;4693;18153;4;4979;410;54;3;2726;11423;4;2864;450;42;4;4115;16980;5;4286;237;42;5;7249;37991;4;3979;3233;422;704;41;6;5554;28812;4;2868;2772;608;585;36;7;5733;23734;4;6033;473;37;8;5623;23246;4;5907;460;37;9;3115;12962;4;3300;524;38
13.03.20;15:05:00;1;242;4241;0;2;4757;17762;4;5038;397;54;3;2773;11196;4;2917;466;42;4;4158;16636;5;4331;239;42;5;7462;37422;4;4091;3335;422;692;41;6;5725;28370;4;2971;2872;608;587;36;7;5667;23254;4;5970;470;38;8;4653;22780;4;4892;384;31;9;3092;12706;4;3270;516;39
13.03.20;15:00:00;1;250;4221;0;2;4735;17366;4;5019;390;53;3;2810;10965;4;2959;469;42;4;4166;16290;5;4339;242;41;5;7493;36799;4;4100;3356;422;698;41;6;5769;27892;4;3004;2906;608;584;36;7;5747;22782;4;6025;460;37;8;5623;22315;4;5926;465;37;9;3124;12444;4;3300;511;39
13.03.20;14:55:00;1;336;4194;0;2;4232;16971;4;4484;393;53;3;2644;10731;4;2781;462;42;4;3959;15944;5;4124;236;41;5;7526;36240;4;4125;3364;421;694;41;6;5836;27461;4;3006;2914;607;581;35;7;4945;22208;0;5194;381;30;8;4835;21848;4;5089;386;30;9;3208;12187;4;3395;510;39
13.03.20;14:50:00;1;284;4167;0;2;5022;16617;4;5316;402;53;3;2972;10509;4;3122;461;42;4;4424;15612;5;4609;238;41;5;8269;35604;4;4558;3690;424;689;41;6;6374;26973;4;3298;3215;602;582;35;7;6036;21814;4;6340;461;37;8;5925;21363;4;6220;456;37;9;3283;11917;4;3472;504;39
13.03.20;14:45:00;1;326;4143;0;2;4766;16198;4;5034;394;51;3;2817;10262;4;2962;471;41;4;4202;15242;5;4377;234;39;5;7895;34930;4;4334;3535;418;689;40;6;6065;26453;4;3124;3032;603;582;35;7;4714;21307;4;4957;368;28;8;5786;20865;4;6083;456;36;9;3212;11643;4;3399;508;38